Погода в Шабаново

Россия / Кемеровская область (Кузбасс)     54°40′25″N   85°36′41″E
темп.,
°C
ветер,
м/с
пор.,
м/с
влажн.,
%
обл.,
%
осадки,
мм/ч
давл.,
гПа
погр.,
м
17 августа, ср
ср1701:00+9з4887100 0.3 1014403
04:00+8зюз359296 0.2 1013167
07:00+9юз3786100 0.3 1012215
10:00+10юз497499 0.0 1012474
13:00+12ююз2663100 0.2 1011696
16:00+16юз774294 0.1 10092025
19:00+11юз5978100 0.3 1010755
22:00+10ююз478368 0.1 1010393
18 августа, чт
чт1801:00+7юз389498 0.1 1010191
04:00+7юз349535 0.8 101094
07:00+7юз4890100 0.9 1011229
10:00+10зюз5776100 0.3 1012470
13:00+14зюз345524 0.8 10121499
16:00+13юз346142 1.6 10121158
19:00+12зюз2272100 2.6 1012329
22:00+8зюз1185100 0.7 101210
19 августа, пт
пт1901:00+7зюз1184100 0.7 101210
04:00+6юз1185100 0.0 101210
07:00+6зюз008738 0.0 101310
10:00+11зюз2271100 0.0 1013520
13:00+15сз115146 0.3 10131387
16:00+15ююв325086 0.5 10131325
19:00+13юз3470100 0.9 1014100
22:00+11зюз3377100 0.1 101557
20 августа, сб
сб2001:00+10сз3679100 0.1 1016172
04:00+7з119569 0.0 101710
07:00+9юз2489100 0.0 1018141
10:00+11зюз3476100 0.0 1018610
13:00+12зсз337299 0.1 1018557
16:00+13зсз347098 0.0 1018533
19:00+11зсз128164 0.0 1017123
22:00+9ююз228919 0.0 101711
21 августа, вс
вс2101:00+10ююз228798 0.0 101747
04:00+10зюз2293100 0.3 101650
07:00+10зюз239467 0.4 101560
10:00+14з4667100 0.0 1015619
13:00+18з5742100 0.0 10142184
16:00+17зсз6742100 0.0 10141831
19:00+16сз5750100 0.0 1015772
22:00+11з3977100 0.2 1018337